Regional Weather Roundup
Issued by NWS

Home | Current Version | Previous Version | Graphics & Text | Print | Product List | Glossary On
Versions: 1 2 3 4 5 6 7 8 9 10 11 12 13 14 15 16 17 18 19 20 21 22 23 24 25 26 27 28 29 30 31 32 33 34 35 36 37 38 39 40 41 42 43 44 45 46 47 48 49 50
798
ASUS45 KBOU 222010
RWRCO

WEATHER ROUNDUP FOR COLORADO
NATIONAL WEATHER SERVICE DENVER/BOULDER CO
200 PM MDT TUE MAY 22 2018

NOTE: "FAIR" INDICATES FEW OR NO CLOUDS BELOW 12000 FEET WITH NO
SIGNIFICANT WEATHER AND/OR OBSTRUCTIONS TO VISIBILITY.

COZ001>005-013-030-031-222100-
...NORTHWEST COLORADO...

CITY           SKY/WX    TMP DP  RH WIND       PRES   REMARKS
CRAIG          PTSUNNY   70  34  26 VRB5      29.93F
HAYDEN         FAIR      68  33  27 CALM      29.96F
MEEKER         RAIN      55  46  71 W15       30.01R
RANGELY        MOCLDY    68  35  29 SW8       29.93R
RABBIT EARS PA CLOUDY    52  34  50 W8        30.20F
STEAMBOAT SPGS FAIR      70  38  30 SW9       29.95F
WALDEN         CLOUDY    64  27  24 W5        30.04F
$$

COZ006>008-011-222100-
...WEST CENTRAL VALLEYS...

CITY           SKY/WX    TMP DP  RH WIND       PRES   REMARKS
GRAND JUNCTION LGT RAIN  62  43  49 E15G28    29.92F
MONTROSE       FAIR      71  37  28 N14G21    29.94F
EAGLE          PTSUNNY   72  33  24 SW35G40   29.97S
RIFLE          FAIR      68  41  37 W26G33    29.94R
DELTA          CLOUDY    73  34  24 CALM      29.93F
NUCLA          FAIR      70  32  24 W18G28    29.99R
$$

COZ017>023-064>068-222100-
...SOUTHWEST COLORADO...

CITY           SKY/WX    TMP DP  RH WIND       PRES   REMARKS
DURANGO        PTSUNNY   65  41  41 NW7       30.02F
CORTEZ         PTSUNNY   74  28  18 S21G29    29.97R
PAGOSA SPRINGS FAIR      69  17  13 S21G33    30.09F
TELLURIDE      CLOUDY    48  34  58 E8G22     30.19R
WOLF CREEK PAS PTSUNNY   45  32  61 S21G41    30.35F
$$

COZ009-010-012-014-032>034-037-058>063-222100-
...CENTRAL COLORADO...

CITY           SKY/WX    TMP DP  RH WIND       PRES   REMARKS
ASPEN          FAIR      69  27  20 SE10G16   30.02F
BUENA VISTA    FAIR      69  32  25 S18G24    30.06F
COPPER MTN     FLURRIES  45  30  57 SE7       30.31F
BERTHOUD PASS  PTSUNNY   41  32  70 SE14G24   30.33F
COTTONWOOD PAS CLOUDY    61  37  41 SE21G26   30.17F
GUNNISON       CLOUDY    66  35  31 NE8       30.05F
GRANBY         FAIR      68  33  26 CALM      30.04F
KREMMLING      FAIR      77  23  13 W10       29.99F
LEADVILLE      LGT RAIN  55  33  43 SW18G35   30.16S
MONARCH PASS   FAIR      52  32  46 MISG      30.41F
SALIDA         FAIR      70  36  29 SE10G16   30.13F
SUNLIGHT       CLOUDY    45  28  53 SW8G26    30.25F
WILKERSON PASS FAIR      55  25  30 S12G22    30.31F
$$

COZ069>075-222100-
...SAN LUIS VALLEY/SANGRE DE CRISTO MOUNTAINS...

CITY           SKY/WX    TMP DP  RH WIND       PRES   REMARKS
ALAMOSA        FAIR      70  36  28 S26G39    30.07F
DEL NORTE      FAIR      59  46  61 E7        30.11F
LA VETA PASS   FAIR      59  36  41 S18G31    30.35F
SAGUACHE       NOT AVBL
$$

COZ035-036-038>040-222100-
...NORTHERN COLORADO FRONT RANGE...

CITY           SKY/WX    TMP DP  RH WIND       PRES   REMARKS
DENVER INTL AP PTSUNNY   78  46  32 SE3       29.91F
AURORA         PTSUNNY   77  42  28 SE10      29.92F
FRONT RANGE AP PTSUNNY   77  41  27 CALM      29.93F
ERIE MUNI ARPT FAIR      77  43  30 E7        29.95F
BOULDER MUN AP FAIR      73  50  43 CALM      29.92F
CENTENNIAL     PTSUNNY   77  42  28 E9        29.93F
BROOMFIELD     PTSUNNY   75  45  33 E7        29.94F
FORT COLLINS   FAIR      77  50  38 SE8       29.91F
LONGMONT       FAIR      78  50  37 CALM      29.92F
$$

COZ041-046-047-076>085-087-088-222100-
...PIKES PEAK/PALMER DIVIDE AND SOUTHERN FOOTHILLS...

CITY           SKY/WX    TMP DP  RH WIND       PRES   REMARKS
COLO. SPRINGS  FAIR      77  38  24 SE18G26   29.96F
A. F. ACADEMY  SUNNY     75  38  26 S10G21    29.97F
SCHRIEVER AFB  NOT AVBL
CHEYENNE MTN   FAIR      73  34  23 SE25G33   29.93F
ELLICOTT         N/A    N/A N/A N/A SW13G18   29.97F
FALCON         FAIR      74  32  21 SE8G17    30.02F
FORT CARSON    MOSUNNY   80  37  22 S18G25    29.93F
LIMON          FAIR      77  42  28 S15       29.95F
MONUMENT HILL  FAIR      72  37  28 SE15G22   30.02F
CANON CITY     FAIR      81  41  24 E9G16     29.91F
WALSENBURG     CLOUDY    63  46  55 NE14      29.99S
TRINIDAD       FAIR      81  46  29 S23G33    29.95F
$$

COZ042>045-048>051-090-091-222100-
...NORTHEAST COLORADO...

CITY           SKY/WX    TMP DP  RH WIND       PRES   REMARKS
GREELEY ARPT   FAIR      74  53  48 E8        29.91F
AKRON          FAIR      73  54  51 SE14      29.93F
BURLINGTON     FAIR      77  52  41 S23G32    29.94F
WRAY           FAIR      79  48  34 S15G24    29.91F
YUMA           FAIR      73  18  12 S14G21    29.92F
STERLING       FAIR      75  54  46 SE14G20   29.91F
HOLYOKE        FAIR      81  50  34 SE21      29.92F
FORT MORGAN    FAIR      77  44  30 SE16      29.92F
$$

COZ086-089-092>099-222100-
...SOUTHEAST COLORADO...

CITY           SKY/WX    TMP DP  RH WIND       PRES   REMARKS
PUEBLO         FAIR      84  41  21 VRB3      29.87F
LA JUNTA       FAIR      83  45  26 E10G17    29.89F
LAMAR          FAIR      83  44  25 S15       29.88F
SPRINGFIELD      N/A     78  47  33 S20G36    29.97S
$$




USA.gov is the U.S. government's official web portal to all federal, state and local government web resources and services.